#timestamp,LO_Frequency,Hit,StdDev 
1702814415.6,286047000.1,N
1702814435.5,286047000.4,N
1702814455.3,286047001.0,N
1702814475.2,286046999.7,N
1702814495.9,286047000.2,N
1702814515.7,286047002.7,N
1702814535.6,286047000.6,N
1702814555.4,286047002.4,N
1702814575.2,286047000.5,N
1702814595.1,286047002.7,N
1702814596.0,286047002.7,N
1702814615.8,286047000.2,N
1702814635.7,286047000.2,N
1702814655.5,286046999.8,N
1702814675.3,286047002.0,N
1702814695.2,286047002.1,N
1702814715.0,286047004.2,Y
1702814715.9,286047004.2,P
1702814735.8,286047002.8,N
1702814755.6,286046998.3,N
1702814775.4,286046999.0,N
1702814795.3,286046998.4,N
1702814815.1,286046998.4,N
1702814835.8,286047000.7,N
1702814855.7,286047000.8,N
1702814875.5,286047002.6,N
1702814895.4,286046999.7,N
1702814915.2,286047001.5,N
1702814935.0,286047003.9,N
1702814935.9,286047003.9,N
1702814955.8,286047004.3,N
1702814975.6,286047004.0,N
1702814995.4,286047001.8,N
1702815015.3,286047004.3,N
1702815035.1,286047002.0,N
1702815055.9,286047002.2,N
1702815075.7,286047000.5,N
1702815095.5,286046999.8,N
1702815115.4,286047003.7,N
1702815135.2,286047001.6,N
1702815155.0,286047002.3,N
1702815156.0,286047002.3,N
1702815175.8,286047001.4,N
1702815195.6,286047001.7,N
1702815215.5,286047002.0,N
1702815235.3,286047000.0,N
1702815255.1,286047000.3,N
1702815275.9,286047001.1,N
1702815295.7,286046998.3,N
1702815315.6,286047000.5,N
1702815335.4,286047002.4,N
1702815355.2,286047000.0,N
1702815375.1,286047000.3,N
1702815376.0,286047000.3,N
1702815395.8,286046999.7,N
1702815415.7,286047004.4,N
1702815435.5,286047004.0,N
1702815455.3,286047001.8,N
1702815475.2,286047001.8,N
1702815495.0,286047002.0,N
1702815495.9,286047002.0,N
1702815515.8,286047002.1,N
1702815535.6,286047002.6,N
1702815555.4,286047002.3,N
1702815575.3,286047002.2,N
1702815595.1,286046999.7,N
1702815615.9,286047002.2,N
1702815635.7,286047001.8,N
1702815655.5,286047004.1,Y
1702815675.4,286047002.7,P
1702815695.2,286047002.3,P
1702815715.1,286047002.3,P
1702815716.0,286047002.3,Y
1702815735.8,286046998.6,P
1702815755.6,286046998.4,N
1702815775.5,286046999.1,N
1702815795.3,286046999.2,N
1702815815.1,286046996.8,N
1702815835.9,286046997.4,N
1702815855.7,286046997.4,N
1702815875.6,286046998.7,N
1702815895.4,286046998.1,N
1702815915.2,286046998.7,N
1702815935.1,286046999.2,N
1702815936.0,286046999.2,N
1702815955.8,286046998.9,N
1702815975.7,286046998.3,N
1702815995.5,286046998.6,N
1702816015.3,286047000.9,N
1702816035.2,286047000.3,N
1702816055.9,286047000.4,N
1702816075.7,286046999.7,N
1702816095.6,286047002.7,N
1702816115.4,286047002.4,N
1702816135.2,286047002.7,N
1702816155.1,286047001.8,N
1702816156.0,286047001.8,N
1702816175.8,286047004.0,N
1702816195.7,286047004.1,N
1702816215.5,286047002.1,N
1702816265.4,286047000.6,E
1702816275.3,286046999.8,N
1702816295.1,286047000.7,P
1702816315.9,286046998.6,P
1702816335.7,286047000.8,N
1702816355.6,286046998.6,N
1702816375.4,286046998.2,N
1702816395.3,286046998.3,N
1702816415.1,286046998.8,N
1702816435.8,286047001.2,N
1702816455.7,286046999.2,N
1702816475.5,286046997.2,N
1702816495.4,286046998.9,N
1702816515.2,286046999.1,N
1702816535.0,286046999.3,N
1702816535.9,286046999.3,N
1702816555.8,286046997.8,N
1702816575.6,286046999.5,N
1702816595.5,286046996.8,Y
1702816615.3,286046997.7,P
1702816635.1,286046997.2,P
1702816655.9,286046998.7,N
1702816675.7,286046998.5,N
1702816695.6,286046998.3,N
1702816715.4,286046998.7,N
1702816735.2,286047000.6,N
1702816755.1,286046998.6,N
1702816756.0,286046998.6,N
1702816775.8,286047001.0,N
1702816795.7,286047001.2,N
1702816815.5,286046999.3,N
1702816835.3,286046998.3,N
1702816855.2,286046999.1,N
1702816875.0,286047001.2,N
1702816875.9,286047001.2,N
1702816895.7,286046999.3,N
1702816915.6,286046999.3,N
1702816935.4,286046998.9,N
1702816955.3,286046999.4,N
1702816975.1,286046998.8,N
1702816976.0,286046998.8,N
1702816995.8,286046998.5,N
1702817015.7,286047000.9,N
1702817035.5,286047002.4,N
1702817055.4,286047000.7,N
1702817075.2,286046998.4,N
1702817095.0,286047000.5,N
1702817095.9,286047000.5,N
1702817115.8,286046999.9,N
1702817135.6,286046998.5,N
1702817155.4,286046998.4,N
1702817175.3,286047001.1,N
1702817195.1,286047001.0,N
1702817215.9,286047000.7,N
1702817235.7,286047002.6,N
1702817255.5,286047000.1,N
1702817275.4,286046998.2,N
1702817295.2,286046998.4,N
1702817315.0,286047000.8,N
1702817315.9,286047000.8,N
1702817335.8,286047001.1,N
1702817355.6,286047000.0,N
1702817375.5,286046998.1,N
1702817395.3,286046998.7,N
1702817415.1,286047000.2,N
1702817435.9,286047002.7,N
1702817455.7,286047000.7,N
1702817475.5,286047000.8,N
1702817495.4,286047000.7,N
1702817515.2,286046999.8,N
1702817535.1,286047001.0,N
1702817536.0,286047001.0,N
1702817555.8,286047000.3,N
1702817575.6,286047000.0,N
1702817595.5,286047000.8,N
1702817615.3,286047001.2,N
1702817635.1,286047000.6,N
1702817655.9,286047000.3,N
1702817675.7,286047000.3,N
1702817695.6,286047000.4,N
1702817715.4,286047000.8,N
1702817735.2,286046998.5,N
1702817755.1,286047001.2,N
1702817756.0,286047001.2,N
1702817775.8,286046999.0,N
1702817795.7,286046998.7,N
1702817815.5,286046998.1,N
1702817835.3,286047000.9,N
1702817855.2,286047000.3,N
1702817875.0,286046999.8,N
1702817875.9,286046999.8,N
1702817895.7,286047000.1,N
1702817915.6,286046998.3,N
1702817935.4,286046998.3,N
1702817955.3,286047000.8,N
1702817975.1,286046998.5,N
1702817976.0,286046998.5,N
1702817995.8,286047001.1,N
